Atmospheric History
05/10/2012 06:20  to  5/11/2012 06:20
Change End Date:
To complete the export process:
1) Select all of the data below
2) Copy the data to the clipboard
3) Open a word processor such as Notepad
4) Paste the data into the word processor
5) Save the file

Date/Time (MDT), AirTemp, RH, Dewpoint ,AvgWindSpeed, GustWindSpeed, WindDirection, PrecipType, PrecipIntensity, PrecipAccumulation, PrecipRate
05/11/2012 06:14, 13, 77 , 8 ,1, 4, W, None, None , ,  
05/11/2012 06:04, 14, 80 , 9 ,1, 4, S, None, None , ,  
05/11/2012 04:53, 15, 76 , 9 ,2, 2, N, None, None , ,  
05/11/2012 04:44, 15, 74 , 8 ,1, 4, N, None, None , ,  
05/11/2012 04:38, 16, 75 , 10 ,3, 4, N, None, None , ,  
05/11/2012 04:34, 16, 76 , 9 ,2, 3, N, None, None , ,  
05/11/2012 04:24, 16, 76 , 10 ,1, 5, N, None, None , ,  
05/11/2012 04:22, 16, 76 , 10 ,0, 5, N, None, None , ,  
05/11/2012 04:14, 16, 76 , 10 ,2, 2, E, None, None , ,  
05/11/2012 04:07, 16, 70 , 8 ,1, 2, SE, None, None , ,  
05/11/2012 04:03, 17, 70 , 9 ,1, 3, SW, None, None , ,  
05/11/2012 03:53, 18, 70 , 10 ,1, 2, SE, None, None , ,  
05/11/2012 03:52, 17, 71 , 10 ,1, 2, SE, None, None , ,  
05/11/2012 03:43, 17, 72 , 9 ,1, 3, NE, None, None , ,  
05/11/2012 03:37, 17, 71 , 9 ,1, 5, E, None, None , ,  
05/11/2012 03:33, 18, 69 , 9 ,3, 5, S, None, None , ,  
05/11/2012 03:23, 17, 69 , 9 ,2, 5, S, None, None , ,  
05/11/2012 03:22, 17, 68 , 9 ,3, 5, S, None, None , ,  
05/11/2012 03:13, 17, 69 , 9 ,4, 9, W, None, None , ,  
05/11/2012 03:03, 20, 65 , 10 ,2, 2, S, None, None , ,  
05/11/2012 02:53, 20, 61 , 9 ,2, 3, E, None, None , ,  
05/11/2012 02:53, 20, 61 , 9 ,2, 3, E, None, None , ,  
05/11/2012 02:43, 22, 55 , 8 ,0, 4, SE, None, None , ,  
05/11/2012 02:38, 21, 58 , 8 ,2, 6, NW, None, None , ,  
05/11/2012 02:33, 22, 55 , 9 ,0, 2, E, None, None , ,  
05/11/2012 02:23, 23, 52 , 8 ,1, 3, W, None, None , ,  
05/11/2012 02:22, 23, 51 , 8 ,1, 3, NW, None, None , ,  
05/11/2012 02:13, 24, 49 , 8 ,2, 4, SE, None, None , ,  
05/11/2012 02:07, 23, 55 , 9 ,3, 4, SE, None, None , ,  
05/11/2012 02:03, 22, 58 , 10 ,2, 6, SE, None, None , ,  
05/11/2012 01:53, 24, 49 , 8 ,3, 4, W, None, None , ,  
05/11/2012 01:52, 24, 50 , 8 ,3, 4, W, None, None , ,  
05/11/2012 01:43, 26, 47 , 8 ,1, 2, SW, None, None , ,  
05/11/2012 01:37, 26, 44 , 8 ,2, 6, NE, None, None , ,  
05/11/2012 01:33, 27, 42 , 7 ,4, 7, N, None, None , ,  
05/11/2012 01:23, 26, 46 , 8 ,7, 8, NE, None, None , ,  
05/11/2012 01:12, 28, 39 , 6 ,4, 8, E, None, None , ,  
05/11/2012 01:08, 27, 42 , 7 ,5, 7, NE, None, None , ,  
05/11/2012 01:02, 27, 44 , 8 ,6, 7, NE, None, None , ,  
05/11/2012 00:52, 28, 42 , 8 ,6, 7, NE, None, None , ,  
05/11/2012 00:52, 28, 42 , 8 ,6, 7, NE, None, None , ,  
05/11/2012 00:42, 27, 45 , 8 ,1, 9, NE, None, None , ,  
05/11/2012 00:37, 27, 44 , 8 ,4, 9, N, None, None , ,  
05/11/2012 00:32, 27, 43 , 8 ,4, 7, N, None, None , ,  
05/11/2012 00:23, 27, 43 , 8 ,6, 9, N, None, None , ,  
05/11/2012 00:22, 27, 43 , 8 ,6, 9, N, None, None , ,  
05/11/2012 00:12, 27, 44 , 8 ,5, 8, NW, None, None , ,  
05/11/2012 00:08, 27, 44 , 8 ,6, 12, NW, None, None , ,  
05/11/2012 00:02, 28, 43 , 8 ,9, 12, NW, None, None , ,  
05/10/2012 23:52, 28, 43 , 8 ,9, 13, NW, None, None , ,  
05/10/2012 23:42, 28, 42 , 8 ,7, 13, NW, None, None , ,  
05/10/2012 23:37, 28, 43 , 8 ,7, 13, NW, None, None , ,  
05/10/2012 23:32, 28, 42 , 8 ,7, 10, NW, None, None , ,  
05/10/2012 23:22, 29, 41 , 8 ,7, 10, NW, None, None , ,  
05/10/2012 23:22, 29, 41 , 8 ,7, 10, NW, None, None , ,  
05/10/2012 23:12, 29, 41 , 8 ,8, 12, NW, None, None , ,  
05/10/2012 23:02, 30, 36 , 7 ,12, 18, NW, None, None , ,  
05/10/2012 22:52, 31, 36 , 7 ,9, 17, NW, None, None , ,  
05/10/2012 22:52, 31, 36 , 7 ,9, 18, NW, None, None , ,  
05/10/2012 22:41, 31, 35 , 6 ,12, 15, NW, None, None , ,  
05/10/2012 22:37, 31, 35 , 6 ,10, 18, NW, None, None , ,  
05/10/2012 22:31, 31, 33 , 6 ,12, 18, NW, None, None , ,  
05/10/2012 22:23, 31, 32 , 5 ,13, 16, NW, None, None , ,  
05/10/2012 22:21, 31, 33 , 5 ,11, 16, NW, None, None , ,  
05/10/2012 22:11, 31, 32 , 5 ,12, 19, NW, None, None , ,  
05/10/2012 22:01, 31, 33 , 5 ,12, 20, NW, None, None , ,  
05/10/2012 21:52, 30, 35 , 6 ,10, 14, NW, None, None , ,  
05/10/2012 21:51, 30, 35 , 6 ,11, 14, NW, None, None , ,  
05/10/2012 21:41, 31, 34 , 6 ,9, 12, NW, None, None , ,  
05/10/2012 21:37, 31, 33 , 6 ,9, 14, NW, None, None , ,  
05/10/2012 21:31, 32, 32 , 5 ,9, 16, NW, None, None , ,  
05/10/2012 21:22, 31, 37 , 7 ,7, 12, N, None, None , ,  
05/10/2012 21:21, 31, 35 , 6 ,9, 12, N, None, None , ,  
05/10/2012 21:11, 32, 33 , 6 ,9, 13, NW, None, None , ,  
05/10/2012 21:07, 32, 30 , 5 ,10, 14, NW, None, None , ,  
05/10/2012 21:01, 32, 32 , 6 ,9, 14, NW, None, None , ,  
05/10/2012 20:52, 34, 28 , 5 ,7, 11, N, None, None , ,  
05/10/2012 20:51, 34, 28 , 5 ,7, 11, N, None, None , ,  
05/10/2012 20:41, 35, 26 , 4 ,6, 17, N, None, None , ,  
05/10/2012 20:37, 35, 25 , 3 ,12, 17, NW, None, None , ,  
05/10/2012 20:31, 35, 26 , 4 ,10, 17, NW, None, None , ,  
05/10/2012 20:22, 35, 26 , 4 ,12, 17, NW, None, None , ,  
05/10/2012 20:21, 35, 26 , 4 ,15, 17, NW, None, None , ,  
05/10/2012 20:10, 36, 24 , 3 ,11, 14, NW, None, None , ,  
05/10/2012 20:07, 36, 25 , 4 ,9, 12, NW, None, None , ,  
05/10/2012 20:00, 36, 27 , 6 ,9, 20, NW, None, None , ,  
05/10/2012 19:52, 38, 22 , 3 ,16, 22, NW, None, None , ,  
05/10/2012 19:50, 38, 22 , 3 ,17, 22, NW, None, None , ,  
05/10/2012 19:40, 40, 20 , 3 ,12, 21, NW, None, None , ,  
05/10/2012 19:37, 40, 20 , 3 ,14, 19, NW, None, None , ,  
05/10/2012 19:30, 40, 18 , 1 ,9, 21, NW, None, None , ,  
05/10/2012 19:22, 40, 18 , 1 ,12, 23, W, None, None , ,  
05/10/2012 19:20, 41, 19 , 2 ,17, 23, W, None, None , ,  
05/10/2012 19:10, 41, 18 , 1 ,15, 22, NW, None, None , ,  
05/10/2012 19:07, 42, 20 , 5 ,9, 16, NW, None, None , ,  
05/10/2012 19:00, 41, 19 , 2 ,8, 22, W, None, None , ,  
05/10/2012 18:53, 42, 16 , -1 ,6, 14, W, None, None , ,  
05/10/2012 18:50, 42, 18 , 2 ,9, 20, SW, None, None , ,  
05/10/2012 18:40, 41, 19 , 2 ,16, 21, NW, None, None , ,  
05/10/2012 18:37, 41, 17 , 0 ,12, 20, NW, None, None , ,  
05/10/2012 18:30, 42, 17 , 1 ,9, 22, NW, None, None , ,  
05/10/2012 18:23, 42, 16 , 0 ,17, 24, NW, None, None , ,  
05/10/2012 18:20, 42, 17 , 1 ,11, 24, NW, None, None , ,  
05/10/2012 18:10, 41, 18 , 1 ,18, 23, SW, None, None , ,  
05/10/2012 18:07, 43, 18 , 2 ,15, 22, W, None, None , ,  
05/10/2012 18:00, 41, 16 , -1 ,15, 22, W, None, None , ,  
05/10/2012 17:52, 41, 16 , -1 ,16, 22, W, None, None , ,  
05/10/2012 17:50, 42, 14 , -3 ,7, 21, SW, None, None , ,  
05/10/2012 17:39, 43, 16 , 1 ,7, 21, W, None, None , ,  
05/10/2012 17:38, 43, 15 , -1 ,13, 21, W, None, None , ,  
05/10/2012 17:29, 43, 16 , 1 ,14, 22, W, None, None , ,  
05/10/2012 17:22, 42, 16 , 0 ,7, 24, W, None, None , ,  
05/10/2012 17:19, 42, 16 , 0 ,18, 24, W, None, None , ,  
05/10/2012 17:09, 43, 17 , 2 ,17, 24, NW, None, None , ,  
05/10/2012 17:07, 43, 17 , 1 ,10, 24, W, None, None , ,  
05/10/2012 16:59, 43, 17 , 1 ,9, 21, SW, None, None , ,  
05/10/2012 16:52, 43, 17 , 2 ,7, 19, W, None, None , ,  
05/10/2012 16:49, 42, 17 , 1 ,4, 21, SW, None, None , ,  
05/10/2012 16:39, 42, 17 , 1 ,13, 21, W, None, None , ,  
05/10/2012 16:37, 42, 17 , 1 ,8, 19, W, None, None , ,  
05/10/2012 16:29, 43, 20 , 5 ,18, 24, W, None, None , ,  
05/10/2012 16:22, 43, 17 , 1 ,6, 21, NW, None, None , ,  
05/10/2012 16:19, 43, 16 , 1 ,12, 21, NW, None, None , ,  
05/10/2012 16:09, 43, 17 , 1 ,11, 29, W, None, None , ,  
05/10/2012 16:07, 42, 17 , 1 ,15, 29, W, None, None , ,  
05/10/2012 15:59, 42, 17 , 1 ,16, 21, W, None, None , ,  
05/10/2012 15:53, 42, 17 , 2 ,14, 25, SW, None, None , ,  
05/10/2012 15:49, 43, 19 , 4 ,19, 25, W, None, None , ,  
05/10/2012 15:39, 42, 16 , -1 ,11, 24, W, None, None , ,  
05/10/2012 15:37, 42, 18 , 2 ,16, 24, NW, None, None , ,  
05/10/2012 15:29, 42, 18 , 1 ,7, 30, W, None, None , ,  
05/10/2012 15:23, 42, 19 , 3 ,19, 30, W, None, None , ,  
05/10/2012 15:19, 42, 18 , 1 ,13, 22, W, None, None , ,  
05/10/2012 15:09, 42, 16 , -1 ,12, 21, W, None, None , ,  
05/10/2012 15:08, 41, 15 , -2 ,11, 28, W, None, None , ,  
05/10/2012 14:59, 41, 14 , -4 ,20, 31, W, None, None , ,  
05/10/2012 14:53, 42, 14 , -3 ,19, 33, W, None, None , ,  
05/10/2012 14:48, 42, 15 , -1 ,23, 33, SW, None, None , ,  
05/10/2012 14:38, 41, 14 , -3 ,14, 33, W, None, None , ,  
05/10/2012 14:37, 42, 15 , -2 ,17, 33, W, None, None , ,  
05/10/2012 14:28, 41, 14 , -3 ,18, 26, NW, None, None , ,  
05/10/2012 14:23, 41, 19 , 3 ,16, 28, SW, None, None , ,  
05/10/2012 14:18, 41, 18 , 1 ,14, 28, SW, None, None , ,  
05/10/2012 14:08, 40, 20 , 4 ,17, 26, W, None, None , ,  
05/10/2012 14:07, 40, 18 , 1 ,16, 26, SW, None, None , ,  
05/10/2012 13:58, 40, 21 , 3 ,19, 28, SW, None, None , ,  
05/10/2012 13:52, 41, 22 , 6 ,11, 17, W, None, None , ,  
05/10/2012 13:48, 41, 24 , 7 ,12, 25, SW, None, None , ,  
05/10/2012 13:38, 40, 26 , 8 ,17, 24, SW, None, None , ,  
05/10/2012 13:37, 40, 24 , 6 ,17, 25, SW, None, None , ,  
05/10/2012 13:28, 40, 24 , 7 ,14, 24, W, None, None , ,  
05/10/2012 13:22, 39, 23 , 5 ,16, 24, W, None, None , ,  
05/10/2012 13:18, 40, 23 , 6 ,17, 24, W, None, None , ,  
05/10/2012 13:09, 40, 27 , 9 ,14, 25, SW, None, None , ,  
05/10/2012 13:08, 40, 25 , 7 ,16, 25, SW, None, None , ,  
05/10/2012 12:58, 39, 25 , 6 ,17, 26, SW, None, None , ,  
05/10/2012 12:53, 39, 23 , 5 ,14, 25, W, None, None , ,  
05/10/2012 12:48, 39, 26 , 7 ,15, 25, SW, None, None , ,  
05/10/2012 12:38, 38, 26 , 7 ,11, 21, SW, None, None , ,  
05/10/2012 12:37, 38, 26 , 7 ,10, 21, SW, None, None , ,  
05/10/2012 12:27, 39, 27 , 8 ,15, 27, W, None, None , ,  
05/10/2012 12:22, 39, 30 , 10 ,17, 27, SW, None, None , ,  
05/10/2012 12:17, 39, 27 , 8 ,14, 27, W, None, None , ,  
05/10/2012 12:07, 38, 28 , 8 ,17, 21, SW, None, None , ,  
05/10/2012 11:57, 37, 28 , 7 ,15, 24, W, None, None , ,  
05/10/2012 11:52, 37, 29 , 8 ,9, 24, SW, None, None , ,  
05/10/2012 11:47, 38, 32 , 10 ,13, 20, SW, None, None , ,  
05/10/2012 11:37, 37, 29 , 8 ,17, 25, W, None, None , ,  
05/10/2012 11:37, 37, 29 , 8 ,17, 25, W, None, None , ,  
05/10/2012 11:27, 37, 33 , 10 ,18, 26, SW, None, None , ,  
05/10/2012 11:22, 37, 34 , 11 ,4, 25, W, None, None , ,  
05/10/2012 11:17, 37, 34 , 11 ,13, 25, SW, None, None , ,  
05/10/2012 11:07, 35, 35 , 11 ,12, 24, SW, None, None , ,  
05/10/2012 11:07, 35, 35 , 11 ,14, 24, SW, None, None , ,  
05/10/2012 10:57, 35, 38 , 12 ,15, 24, SW, None, None , ,  
05/10/2012 10:52, 35, 41 , 14 ,15, 24, SW, None, None , ,  
05/10/2012 10:47, 36, 42 , 15 ,15, 22, SW, None, None , ,  
05/10/2012 10:37, 36, 41 , 15 ,16, 24, SW, None, None , ,  
05/10/2012 10:37, 36, 45 , 17 ,16, 24, W, None, None , ,  
05/10/2012 10:27, 35, 43 , 15 ,11, 19, W, None, None , ,  
05/10/2012 10:17, 34, 46 , 15 ,12, 18, W, None, None , ,  
05/10/2012 10:09, 33, 51 , 17 ,11, 18, SW, None, None , ,  
05/10/2012 10:07, 33, 51 , 17 ,11, 18, W, None, None , ,  
05/10/2012 09:57, 33, 53 , 18 ,12, 22, SW, None, None , ,  
05/10/2012 09:52, 33, 53 , 17 ,12, 20, SW, None, None , ,  
05/10/2012 09:47, 33, 55 , 18 ,14, 20, SW, None, None , ,  
05/10/2012 09:37, 33, 58 , 20 ,9, 19, SW, None, None , ,  
05/10/2012 09:36, 32, 54 , 18 ,12, 19, SW, None, None , ,  
05/10/2012 09:26, 32, 57 , 19 ,9, 14, SW, None, None , ,  
05/10/2012 09:22, 32, 57 , 19 ,9, 20, W, None, None , ,  
05/10/2012 09:16, 32, 56 , 19 ,10, 20, SW, None, None , ,  
05/10/2012 09:07, 32, 59 , 20 ,7, 12, W, None, None , ,  
05/10/2012 09:06, 32, 59 , 20 ,7, 12, SW, None, None , ,  
05/10/2012 08:56, 32, 62 , 21 ,11, 16, SW, None, None , ,  
05/10/2012 08:52, 32, 61 , 20 ,11, 21, SW, None, None , ,  
05/10/2012 08:46, 32, 60 , 20 ,12, 21, SW, None, None , ,  
05/10/2012 08:37, 33, 60 , 21 ,8, 21, SW, None, None , ,  
05/10/2012 08:36, 33, 61 , 21 ,6, 21, SW, None, None , ,  
05/10/2012 08:26, 33, 62 , 21 ,9, 20, SW, None, None , ,  
05/10/2012 08:16, 33, 65 , 22 ,10, 18, W, None, None , ,  
05/10/2012 08:07, 33, 66 , 23 ,11, 16, W, None, None , ,  
05/10/2012 08:06, 33, 67 , 23 ,9, 16, W, None, None , ,  
05/10/2012 07:56, 33, 67 , 23 ,6, 10, SW, None, None , ,  
05/10/2012 07:52, 33, 69 , 24 ,7, 11, W, None, None , ,  
05/10/2012 07:46, 33, 70 , 24 ,7, 11, W, None, None , ,  
05/10/2012 07:38, 33, 72 , 25 ,7, 10, W, None, None , ,  
05/10/2012 07:36, 33, 78 , 27 ,6, 10, W, None, None , ,  
05/10/2012 07:26, 32, 76 , 26 ,7, 9, W, None, None , ,  
05/10/2012 07:22, 32, 77 , 26 ,7, 9, W, None, None , ,  
05/10/2012 07:16, 32, 78 , 26 ,4, 11, SW, Yes, , ,  
05/10/2012 07:07, 32, 83 , 27 ,6, 9, SW, Yes, , ,  
05/10/2012 07:06, 32, 83 , 27 ,6, 9, SW, Yes, , ,  
05/10/2012 06:56, 32, 81 , 27 ,5, 9, SW, Yes, , ,  
05/10/2012 06:52, 32, 83 , 28 ,5, 7, S, None, None , ,  
05/10/2012 06:45, 32, 85 , 28 ,4, 6, S, None, None , ,  
05/10/2012 06:37, 32, 87 , 28 ,4, 5, S, None, None , ,  
05/10/2012 06:35, 32, 87 , 28 ,4, 5, S, None, None , ,  
05/10/2012 06:25, 32, 87 , 29 ,1, 7, SW, None, None , ,  
05/10/2012 06:22, 32, 87 , 29 ,1, 7, SE, None, None , ,  
Change End Date:
Copyright © 1998-2005 Surface Systems, Inc.
All Rights Reserved
Send comments about the data to:
SCAN Web ® is a registered trademark of Surface Systems, Inc.
SCAN Web Version 5.6